Terminal Aerodrome Forecast
Issued by NWS Cleveland, OH

Home | Current Version | Previous Version | Graphics & Text | Print | Product List | Glossary On
Versions: 1 2 3 4 5 6 7 8 9 10 11 12 13 14
188
FTUS41 KCLE 141127
TAFYNG
TAF
KYNG 141127Z 1412/1512 08005KT P6SM OVC080
     FM141900 30004KT P6SM VCSH OVC050
     FM150300 30004KT P6SM SCT050 BKN200=

USA.gov is the U.S. government's official web portal to all federal, state and local government web resources and services.